Location: El Manguito
(10.2358°N, 67.3634°W)
Time: 23:30:42
(UTC+00:00)

USA 215 - Pass Details

Date: 13 December 2024
Orbit: 1099 x 1108 km, 123.0° (Epoch: 15 January)

Event Time Altitude Azimuth Distance (km) Brightness Sun altitude
Rises 01:46:44 0° 181° (S) 3,918 6.4 -50.4°
Enters shadow 01:48:14 - 189° (S) 3,497 6.1 -50.8°
Exits shadow 01:55:41 13° 253° (WSW) 2,749 5.7 -52.4°
Drops below altitude 10° 01:57:05 10° 265° (W) 2,956 5.9 -52.7°
Sets 02:00:58 0° 289° (WNW) 3,912 6.5 -53.6°
